STARLINK-34083 (63908 NORAD) Tracking and Keplerian Element Data

This shows tracking and keplerian element data for the satellite.

Feedback or suggestion? Click here.




ElementValue
Catalog63908
NameSTARLINK-34083
Epoch Orbit3561
Epoch Day354.17646361
Epoch Year2025
RAAN265.5841
Inclination43.0012
Eccentricity0.0007346
Argument of Perigee238.3461
Mean Anonmoly121.6674
Mean Motion15.27614104
Decay Rate0.00019174
L11 63908U 25095U 25354.17646361 .00019174 00000+0 70330-3 0 9997
L22 63908 43.0012 265.5841 0007346 238.3461 121.6674 15.27614104 35619



Live tracking and technical data element details for STARLINK-34083 (NORAD 63908). STARLINK-34083 can be tracked NOW for your location showing map with azimuth and elevation plus other details from your city location.







IsCatalogInMostPopularTable: catalog: 63908, numindb: 5
Update: records affected: 1



GetName: 63908 STARLINK-34083

Hit Count: updated at: Sat, 11 Apr 2026 21:27:59 GMT